Home   Weather   Firozpur   Past weeks

Flag for India Past Weather in Firozpur, Punjab, India — Yesterday and Last 2 Weeks

Now
54 °F

Passing clouds.


Feels Like: 50 °F
Forecast: 46 / 64 °F
Wind: 10 mph from North

Location: Lahore Airport

Current Time: Jan 20, 2017 at 11:45:06 am

Latest Report: Jan 20, 2017 at 10:55 am


Visibility: 3 mi

Pressure: 30.27 "Hg

Humidity: 58%

Dew Point: 39 °F

Location of FirozpurLocation

Past Weather in Firozpur — Graph

°F

Firozpur Temperature Yesterday

Maximum temperature yesterday: 63 °F (at 3:25 pm)
Minimum temperature yesterday: 41 °F (at 5:55 am)
Average temperature yesterday: 50 °F

High & Low Weather Summary for the Past Weeks

 TemperatureHumidityPressure
High70 °F (Jan 5, 2:55 pm)100% (Jan 5, 11:25 pm)30.36 "Hg (Jan 5, 11:25 pm)
Low36 °F (Jan 12, 7:25 am)22% (Jan 11, 3:55 pm)29.83 "Hg (Jan 6, 4:25 pm)
Average52 °F71%30.06 "Hg
* Reported Jan 5 9:55 am — Jan 20 10:25 am, Firozpur, Weather by CustomWeather, © 2017

Note: Actual official high and low records may vary slightly from our data, if they occured in-between our weather recording intervals... More about our weather records

Advertising

Firozpur Weather History for the Previous 24 Hours

Scroll right to see more
 ConditionsComfort  
Time TempWeatherWind HumidityBarometerVisibility
10:25 am
Fri, Jan 20
52 °FClear.10 mph62%30.27 "Hg2 mi
9:55 am50 °FClear.8 mph71%30.27 "Hg2 mi
9:25 am48 °FClear.6 mph76%30.24 "Hg1 mi
8:55 am46 °FCool.No wind76%30.24 "Hg1 mi
8:25 am45 °FQuite cool.3 mph81%30.24 "Hg1 mi
7:55 am45 °FQuite cool.No wind81%30.21 "HgN/A
7:25 am45 °FFog.3 mph81%30.21 "Hg1 mi
6:55 am45 °FFog.No wind81%30.21 "Hg1 mi
6:30 am41 °FFog.5 mph87%30.30 "Hg2 mi
5:55 am45 °FFog.5 mph81%30.18 "Hg2 mi
5:25 am45 °FFog.3 mph81%30.21 "Hg2 mi
4:55 am45 °FClear.3 mph81%30.21 "Hg2 mi
4:25 am45 °FClear.6 mph87%30.21 "Hg2 mi
3:55 am46 °FClear.No wind82%30.21 "Hg2 mi
3:25 am48 °FClear.5 mph76%30.21 "Hg2 mi
2:55 am48 °FClear.3 mph82%30.21 "Hg2 mi
2:29 am48 °FClear.3 mph82%30.21 "Hg2 mi
1:59 am50 °FClear.No wind71%30.21 "Hg2 mi
1:29 am50 °FClear.No wind71%30.24 "Hg2 mi
12:59 am50 °FClear.No wind76%30.24 "Hg2 mi
12:29 am50 °FClear.3 mph76%30.24 "Hg2 mi
11:59 pm
Thu, Jan 19
50 °FClear.5 mph76%30.24 "Hg2 mi
11:29 pm52 °FClear.5 mph72%30.24 "Hg2 mi
10:59 pm52 °FClear.3 mph72%30.27 "Hg2 mi
9:55 pm52 °FClear.6 mph72%30.27 "Hg2 mi
9:25 pm54 °FClear.6 mph67%30.24 "Hg2 mi
8:25 pm55 °FClear.5 mph67%30.24 "Hg2 mi
7:25 pm57 °FClear.5 mph59%30.24 "Hg2 mi
6:25 pm57 °FClear.6 mph59%30.24 "Hg3 mi
5:55 pm59 °FClear.9 mph48%30.24 "Hg4 mi
3:25 pm63 °FClear.9 mph42%30.27 "Hg4 mi
2:55 pm61 °FClear.10 mph45%30.27 "Hg4 mi
2:25 pm61 °FClear.10 mph45%30.27 "Hg4 mi
1:55 pm59 °FClear.12 mph45%30.30 "Hg4 mi
1:25 pm59 °FHaze.10 mph45%30.30 "Hg4 mi
12:55 pm59 °FHaze.10 mph48%30.33 "Hg4 mi
12:25 pm57 °FHaze.10 mph51%30.33 "Hg3 mi
11:55 am57 °FHaze.12 mph48%30.36 "Hg2 mi
11:25 am55 °FClear.9 mph55%30.36 "Hg2 mi
Weather by CustomWeather, © 2017

See weather overviewHow to use our weather pages